This is the latest recevied weather packets stored in our database for station/object KM4KMS. If no packets are shown the sender has not sent any weather packets the latest 10 day(s).
| Time | Temp. | Humidity | Pressure | Rain* | Wind** | Luminosity | Snow |
|---|---|---|---|---|---|---|---|
| 1777613320 | 7.78° C | 83% | 1014.1 hPa | 0 mm | - | 0 W/m² | - |
| 1777613017 | 7.78° C | 83% | 1013.9 hPa | 0 mm | - | 0 W/m² | - |
| 1777612713 | 7.22° C | 87% | 1014.1 hPa | 0 mm | - | 0 W/m² | - |
| 1777612409 | 7.22° C | 92% | 1014 hPa | 0 mm | - | 0 W/m² | - |
| 1777612104 | 7.22° C | 92% | 1014 hPa | 0 mm | - | 0 W/m² | - |
| 1777611800 | 7.22° C | 93% | 1014.1 hPa | 0 mm | - | 0 W/m² | - |
| 1777611496 | 7.22° C | 94% | 1014.1 hPa | 0 mm | - | 0 W/m² | - |
| 1777611193 | 7.22° C | 93% | 1014.3 hPa | 0 mm | - | 0 W/m² | - |
| 1777610889 | 7.78° C | 90% | 1014 hPa | 0 mm | - | 0 W/m² | - |
| 1777610584 | 7.78° C | 87% | 1014.6 hPa | 0 mm | - | 0 W/m² | - |
| 1777610283 | 7.78° C | 89% | 1014.1 hPa | 0 mm | - | 0 W/m² | - |
| 1777609981 | 7.78° C | 87% | 1014 hPa | 0 mm | - | 0 W/m² | - |
| 1777609677 | 7.22° C | 89% | 1014.3 hPa | 0 mm | - | 0 W/m² | - |
| 1777609374 | 7.22° C | 93% | 1014.3 hPa | 0 mm | - | 0 W/m² | - |
| 1777609072 | 7.22° C | 91% | 1014.4 hPa | 0 mm | - | 0 W/m² | - |
| 1777608769 | 7.22° C | 91% | 1014.3 hPa | 0 mm | - | 0 W/m² | - |
| 1777608465 | 7.22° C | 90% | 1014.4 hPa | 0 mm | - | 0 W/m² | - |
| 1777608164 | 7.78° C | 87% | 1014.4 hPa | 0 mm | - | 0 W/m² | - |
| 1777607860 | 7.78° C | 87% | 1014.4 hPa | 0 mm | - | 0 W/m² | - |
| 1777607556 | 7.78° C | 87% | 1014.7 hPa | 0 mm | - | 0 W/m² | - |
| 1777607252 | 7.78° C | 83% | 1014.6 hPa | 0 mm | - | 0 W/m² | - |
| 1777606949 | 7.78° C | 81% | 1014.6 hPa | 0 mm | - | 0 W/m² | - |
| 1777606645 | 7.78° C | 81% | 1014.6 hPa | 0 mm | - | 0 W/m² | - |
| 1777606340 | 7.78° C | 82% | 1014.7 hPa | 0 mm | - | 0 W/m² | - |
| 1777606035 | 7.78° C | 81% | 1015.1 hPa | 0 mm | - | 0 W/m² | - |
* Rain latest hour (hover to see other rain measurements)
** Current wind speed in m/s (hover to see current wind gust speed)